Regional Weather Roundup
Issued by NWS Northern Indiana

Home | Current Version | Previous Version | Text Only | Print | Product List | Glossary On
Versions: 1 2 3 4 5 6 7 8 9 10 11 12 13 14 15 16 17 18 19 20 21 22 23 24 25 26 27 28 29 30 31 32 33 34 35 36 37 38 39 40 41 42 43 44 45 46 47 48 49 50
000
ASUS43 KIWX 050510
RWRIWX

KIWX WEATHER ROUNDUP
NATIONAL WEATHER SERVICE NORTHERN INDIANA
100 AM EDT WED AUG 05 2015

NOTE: "FAIR" INDICATES FEW OR NO CLOUDS BELOW 12,000 FEET WITH NO
SIGNIFICANT WEATHER AND/OR OBSTRUCTIONS TO VISIBILITY.

* THESE STATIONS ARE NOT UNDER NWS QUALITY CONTROL. THEY ALSO MAY NOT
  REPORT WEATHER SUCH AS PRECIPITATION OR FOG.

INZ001>027-050600-
NORTHERN INDIANA

CITY           SKY/WX    TMP DP  RH WIND       PRES   REMARKS
GARY*          CLEAR     64  62  96 CALM      30.05S
VALPARAISO     PTCLDY    62  58  86 CALM      30.05R
MICHIGAN CITY* PTCLDY    61  61 100 CALM      30.05S
LAPORTE*       PTCLDY    61  61 100 CALM      30.05S
KNOX*          CLEAR     59  59 100 CALM      30.04R
SOUTH BEND     PTCLDY    64  58  80 CALM      30.05R
GOSHEN         LGT RAIN  63  60  90 CALM      30.04S
MONTICELLO*    CLEAR     62  60  94 CALM      30.03S
LOGANSPORT*    CLEAR     61  55  82 CALM      30.05R
ROCHESTER*     CLEAR     64  63  94 CALM      30.05S
WARSAW*        CLEAR     61  59  94 CALM      30.05R
ANGOLA*        MOCLDY    63  59  88 CALM      30.04S
FORT WAYNE     PTCLDY    65  60  84 NW3       30.04R
HUNTINGTON*    PTCLDY    63  60  90 CALM      30.04R
PERU/GRISSOM   CLEAR     62  59  88 W3        30.04R
MARION*        PTCLDY    60  59  97 CALM      30.05R

$$
INZ028>050-050600-
CENTRAL INDIANA

CITY           SKY/WX    TMP DP  RH WIND       PRES   REMARKS
LAFAYETTE      PTCLDY    62  60  93 CALM      30.04R
KOKOMO*        CLEAR     64  57  77 CALM      30.05R
MUNCIE*        PTCLDY    61  60  97 CALM      30.04S
INDIANAPOLIS   CLOUDY    70  61  73 NW6       30.03R

$$
MIZ043>046-050>051-056>058-064>065-071>073-077>080-050600-
SOUTHWEST LOWER MICHIGAN

CITY           SKY/WX    TMP DP  RH WIND       PRES   REMARKS
BATTLE CREEK     N/A    N/A N/A N/A MISG      30.04S
BENTON HARBOR  CLEAR     59  57  93 CALM      30.03S
COLDWATER*     CLEAR     59  57  93 CALM      30.04S
HILLSDALE*     CLEAR     60  59  96 CALM      30.04S
HOLLAND        CLEAR     61  57  87 SW3       30.03S
GRAND RAPIDS   CLEAR     60  55  83 CALM      30.03R
KALAMAZOO      CLEAR     60  55  83 CALM      30.04S
STURGIS*       CLEAR     61  57  88 CALM      30.04S
THREE RIVERS*  FAIR      60  57  91 CALM      30.05R

$$
OHZ001>008-015>018-024>025-050600-
NORTHWEST OHIO

CITY           SKY/WX    TMP DP  RH WIND       PRES   REMARKS
WAUSEON*       FAIR      61  59  94 W5        30.02S
DEFIANCE       MOCLDY    65  58  78 CALM      30.03R
FINDLAY        PTCLDY    65  59  81 W3        30.02R
TOLEDO EXPRESS CLEAR     64  56  75 W5        30.01S
TOLEDO METCALF CLEAR     65  55  70 W5        30.02R
LIMA           PTCLDY    62  59  90 CALM      30.04R

$$
AND FOR LAKE MICHIGAN COASTAL AND OPEN LAKE BUOY OBSERVATIONS

STATION/POSITION TEMP    WIND        PRES    VSBY  WAVE
                 AIR SEA DIR/SP/G                  HT/PER
                 (F)     (DEG/KT/KT) (MB)    (MI)  (FT/S)
CALUMET HARBOR    73      70/  5/  6   N/A
MICHIGAN CITY     69     120/  5/  5   N/A
BURNS HARBOR      71      90/  7/  8 1017.6R
SAINT JOSEPH      68     140/  2/  4 1017.9R
4 MI NW BRIDGMAN  71 74  200/  4/  4   N/A           1
MICHIGAN CITY     72 74  180/  4/  6   N/A           1/ 3

$$
&&


USA.gov is the U.S. government's official web portal to all federal, state and local government web resources and services.